sat.trackr.live / text

‹ back to catalog

LEGION 6

NORAD 62901 · 2025-025B

PAYLOAD ACTIVE UNKNOWN

§ Identity

Operator
Country
US
Launch date
2025-02-04
Launch site
AFETR
Launch vehicle
Mass (kg)
RCS (m²)

External: N2YO · Heavens-Above · Gunter

§ Orbital elements

Epoch: 2026-09-22T09:35:28.794912Z

Period
95.01 min
Inclination
45.0008°
Eccentricity
0.0010322
Mean motion
15.15572960 rev/d
Perigee alt
512.1 km
Apogee alt
526.4 km
Semi-major
6,897.4 km
B*
1.6276e-4
RAAN
49.3067°
Arg perigee
293.6849°
Mean anomaly
66.2946°
Rev number
9,038

§ Raw data

LEGION 61 62901U 25025B   26265.39963883  .00002881  00000+0  16276-3 0  99952 62901  45.0008  49.3067 0010322 293.6849  66.2946 15.15572960 90389

JSON: /api/v1/satellites/62901 · /tle

For live sub-satellite position, see the globe view (requires WebGL).

§ Visibility from observer

Set your observer location to see the next 7 days of passes ≥ 10°. The values pass through the URL so the page stays shareable.

No JS? Fill the form by hand. The geolocation button needs JavaScript.